Time,TemperatureF,DewpointF,PressureIn,WindDirection,WindDirectionDegrees,WindSpeedMPH,WindSpeedGustMPH,Humidity,HourlyPrecipIn,Conditions,Clouds,dailyrainin,SoftwareType,DateUTC
2013-12-22 00:01:00,32.0,29.4,29.84,SSW,212,2.3,0.0,90,0.09,RA,,0.00,WeatherDisplay:10.37,2013-12-22 05:01:00,
2013-12-22 00:02:00,32.0,29.4,29.83,NNE,18,2.3,2.3,90,0.09,RA,,0.00,WeatherDisplay:10.37,2013-12-22 05:02:00,
2013-12-22 00:07:00,32.0,29.4,29.84,North,356,2.3,0.0,90,0.08,RA,,0.01,WeatherDisplay:10.37,2013-12-22 05:07:00,
2013-12-22 00:12:00,32.1,29.5,29.83,ENE,77,1.1,1.1,90,0.07,RA,,0.01,WeatherDisplay:10.37,2013-12-22 05:12:00,
2013-12-22 00:17:00,32.1,29.5,29.82,NE,52,3.0,3.0,90,0.06,,,0.01,WeatherDisplay:10.37,2013-12-22 05:17:00,
2013-12-22 00:22:00,32.0,29.4,29.81,North,6,2.3,2.3,90,0.06,RA,,0.02,WeatherDisplay:10.37,2013-12-22 05:22:00,
2013-12-22 00:27:00,32.0,29.4,29.80,SSE,156,4.6,4.6,90,0.05,RA,,0.02,WeatherDisplay:10.37,2013-12-22 05:27:00,
2013-12-22 00:32:00,32.0,29.4,29.80,WNW,291,1.1,1.1,90,0.06,RA,,0.03,WeatherDisplay:10.37,2013-12-22 05:32:00,
2013-12-22 00:38:00,32.0,29.4,29.80,NE,54,4.6,4.6,90,0.06,RA,,0.04,WeatherDisplay:10.37,2013-12-22 05:38:00,
2013-12-22 00:43:00,32.0,29.4,29.81,NW,323,2.3,2.3,90,0.07,RA,,0.05,WeatherDisplay:10.37,2013-12-22 05:43:00,
2013-12-22 00:48:00,32.1,29.5,29.82,East,90,3.5,3.5,90,0.06,RA,,0.06,WeatherDisplay:10.37,2013-12-22 05:48:00,
2013-12-22 00:53:00,32.1,29.5,29.81,ESE,110,7.0,7.0,90,0.08,RA,,0.07,WeatherDisplay:10.37,2013-12-22 05:53:00,
2013-12-22 00:58:00,32.1,29.5,29.80,ENE,71,2.3,2.3,90,0.08,RA,,0.08,WeatherDisplay:10.37,2013-12-22 05:58:00,
2013-12-22 01:03:00,32.1,29.5,29.80,ENE,63,1.1,0.0,90,0.10,RA,,0.10,WeatherDisplay:10.37,2013-12-22 06:03:00,
2013-12-22 01:08:00,32.2,29.6,29.77,East,84,2.3,2.3,90,0.10,RA,,0.12,WeatherDisplay:10.37,2013-12-22 06:08:00,
2013-12-22 01:13:00,32.1,29.5,29.77,North,1,3.5,3.5,90,0.12,RA,,0.13,WeatherDisplay:10.37,2013-12-22 06:13:00,
2013-12-22 01:18:00,32.1,29.5,29.77,ENE,64,3.0,3.0,90,0.13,RA,,0.14,WeatherDisplay:10.37,2013-12-22 06:18:00,
2013-12-22 01:23:00,32.1,29.5,29.77,North,353,1.1,0.0,90,0.12,RA,,0.15,WeatherDisplay:10.37,2013-12-22 06:23:00,
2013-12-22 01:28:00,32.1,29.5,29.76,ENE,70,3.5,3.5,90,0.14,RA,,0.16,WeatherDisplay:10.37,2013-12-22 06:28:00,
2013-12-22 01:33:00,32.1,29.5,29.77,East,94,0.0,0.0,90,0.14,RA,,0.17,WeatherDisplay:10.37,2013-12-22 06:33:00,
2013-12-22 01:38:00,32.1,29.5,29.75,ENE,70,2.3,2.3,90,0.15,RA,,0.18,WeatherDisplay:10.37,2013-12-22 06:38:00,
2013-12-22 01:43:00,32.1,29.5,29.72,East,85,1.1,0.0,90,0.14,RA,,0.19,WeatherDisplay:10.37,2013-12-22 06:43:00,
2013-12-22 01:48:00,32.1,29.5,29.72,North,355,1.0,1.0,90,0.14,RA,,0.19,WeatherDisplay:10.37,2013-12-22 06:48:00,
2013-12-22 01:53:00,32.1,29.5,29.72,ESE,120,2.3,2.3,90,0.12,,,0.19,WeatherDisplay:10.37,2013-12-22 06:53:00,
2013-12-22 01:58:00,32.0,29.4,29.72,NE,45,1.1,1.1,90,0.11,,,0.19,WeatherDisplay:10.37,2013-12-22 06:58:00,
2013-12-22 01:59:00,32.0,29.4,29.72,North,10,0.0,0.0,90,0.10,,,0.19,WeatherDisplay:10.37,2013-12-22 06:59:00,
2013-12-22 02:04:00,32.0,29.4,29.72,NNW,329,0.0,0.0,90,0.09,,,0.19,WeatherDisplay:10.37,2013-12-22 07:04:00,
2013-12-22 02:09:00,31.9,29.3,29.72,NE,51,2.3,2.3,90,0.06,,,0.19,WeatherDisplay:10.37,2013-12-22 07:09:00,
2013-12-22 02:14:00,32.0,29.4,29.71,North,350,0.0,0.0,90,0.06,,,0.19,WeatherDisplay:10.37,2013-12-22 07:14:00,
2013-12-22 02:19:00,32.0,29.4,29.71,North,350,0.0,0.0,90,0.05,,,0.19,WeatherDisplay:10.37,2013-12-22 07:19:00,
2013-12-22 02:24:00,31.9,29.3,29.71,SW,229,0.0,0.0,90,0.04,,,0.19,WeatherDisplay:10.37,2013-12-22 07:24:00,
2013-12-22 02:29:00,31.9,29.3,29.70,NNE,33,0.0,0.0,90,0.03,,,0.19,WeatherDisplay:10.37,2013-12-22 07:29:00,
2013-12-22 02:34:00,31.9,29.3,29.69,ESE,105,0.0,0.0,90,0.02,,,0.19,WeatherDisplay:10.37,2013-12-22 07:34:00,
2013-12-22 02:39:00,31.8,29.2,29.68,NW,321,0.0,0.0,90,0.01,,,0.19,WeatherDisplay:10.37,2013-12-22 07:39:00,
2013-12-22 02:44:00,31.9,29.3,29.68,NE,41,0.0,0.0,90,0.00,,,0.19,WeatherDisplay:10.37,2013-12-22 07:44:00,
2013-12-22 02:49:00,31.8,29.2,29.68,West,270,0.0,0.0,90,0.00,,,0.19,WeatherDisplay:10.37,2013-12-22 07:49:00,
2013-12-22 02:54:00,31.8,29.2,29.67,NW,318,0.0,0.0,90,0.00,,,0.19,WeatherDisplay:10.37,2013-12-22 07:54:00,
2013-12-22 02:59:00,31.7,29.1,29.67,NNE,25,1.1,1.1,90,0.00,,,0.19,WeatherDisplay:10.37,2013-12-22 07:59:00,
2013-12-22 03:04:00,31.6,29.0,29.67,ESE,107,0.0,0.0,90,0.00,,,0.19,WeatherDisplay:10.37,2013-12-22 08:04:00,
2013-12-22 03:09:00,31.5,28.9,29.66,ESE,122,0.0,0.0,90,0.00,,,0.19,WeatherDisplay:10.37,2013-12-22 08:09:00,
2013-12-22 03:14:00,31.5,28.9,29.65,NE,49,0.0,0.0,90,0.00,,,0.19,WeatherDisplay:10.37,2013-12-22 08:14:00,
2013-12-22 03:19:00,31.5,28.9,29.67,West,263,0.0,0.0,90,0.00,,,0.19,WeatherDisplay:10.37,2013-12-22 08:19:00,
2013-12-22 03:24:00,31.5,28.9,29.67,NW,308,3.5,0.0,90,0.00,,,0.19,WeatherDisplay:10.37,2013-12-22 08:24:00,
2013-12-22 03:29:00,31.5,28.9,29.66,SE,133,0.0,0.0,90,0.00,,,0.19,WeatherDisplay:10.37,2013-12-22 08:29:00,
2013-12-22 03:34:00,31.6,29.0,29.64,East,91,1.0,1.0,90,0.00,,,0.19,WeatherDisplay:10.37,2013-12-22 08:34:00,
2013-12-22 03:39:00,31.4,28.8,29.63,NNW,341,0.0,0.0,90,0.00,,,0.19,WeatherDisplay:10.37,2013-12-22 08:39:00,
2013-12-22 03:44:00,31.4,28.8,29.61,ESE,105,0.0,0.0,90,0.00,,,0.19,WeatherDisplay:10.37,2013-12-22 08:44:00,
2013-12-22 03:49:00,31.3,28.7,29.61,ESE,102,0.0,0.0,90,0.00,,,0.19,WeatherDisplay:10.37,2013-12-22 08:49:00,
2013-12-22 03:54:00,31.3,28.7,29.62,East,89,1.1,0.0,90,0.00,,,0.19,WeatherDisplay:10.37,2013-12-22 08:54:00,
2013-12-22 03:59:00,31.3,28.7,29.63,WNW,290,3.5,3.5,90,0.00,,,0.19,WeatherDisplay:10.37,2013-12-22 08:59:00,
2013-12-22 04:04:00,31.4,28.8,29.60,East,94,1.1,0.0,90,0.00,,,0.19,WeatherDisplay:10.37,2013-12-22 09:04:00,
2013-12-22 04:09:00,31.4,28.8,29.62,ESE,114,1.1,1.1,90,0.00,,,0.19,WeatherDisplay:10.37,2013-12-22 09:09:00,
2013-12-22 04:14:00,31.4,28.8,29.59,WNW,297,3.5,3.5,90,0.00,,,0.19,WeatherDisplay:10.37,2013-12-22 09:14:00,
2013-12-22 04:19:00,31.4,28.8,29.61,ESE,107,3.5,3.5,90,0.00,,,0.19,WeatherDisplay:10.37,2013-12-22 09:19:00,
2013-12-22 04:24:00,31.6,29.0,29.60,SE,132,3.5,3.5,90,0.00,,,0.19,WeatherDisplay:10.37,2013-12-22 09:24:00,
2013-12-22 04:29:00,31.7,29.1,29.66,WNW,293,8.1,8.1,90,0.00,,,0.19,WeatherDisplay:10.37,2013-12-22 09:29:00,
2013-12-22 04:34:00,31.7,29.1,29.59,West,273,4.0,4.0,90,0.00,,,0.19,WeatherDisplay:10.37,2013-12-22 09:34:00,
2013-12-22 04:39:00,31.8,29.2,29.59,West,265,3.5,3.5,90,0.00,,,0.19,WeatherDisplay:10.37,2013-12-22 09:39:00,
2013-12-22 04:44:00,31.9,29.3,29.59,West,275,7.0,7.0,90,0.00,,,0.19,WeatherDisplay:10.37,2013-12-22 09:44:00,
2013-12-22 04:49:00,32.0,29.4,29.63,West,280,4.0,4.0,90,0.00,,,0.19,WeatherDisplay:10.37,2013-12-22 09:49:00,
2013-12-22 04:54:00,32.1,29.5,29.64,WNW,284,2.3,0.0,90,0.00,,,0.19,WeatherDisplay:10.37,2013-12-22 09:54:00,
2013-12-22 05:00:00,32.2,29.6,29.69,WNW,289,3.5,3.5,90,0.00,,,0.19,WeatherDisplay:10.37,2013-12-22 10:00:00,
2013-12-22 05:05:00,32.3,29.7,29.68,East,89,5.8,5.8,90,0.01,RA,,0.20,WeatherDisplay:10.37,2013-12-22 10:05:00,
2013-12-22 05:10:00,32.4,29.8,29.68,West,263,6.9,6.9,90,0.01,RA,,0.20,WeatherDisplay:10.37,2013-12-22 10:10:00,
2013-12-22 05:15:00,32.5,29.9,29.70,West,277,3.5,3.9,90,0.01,,,0.20,WeatherDisplay:10.37,2013-12-22 10:15:00,
2013-12-22 05:20:00,32.5,29.9,29.67,ESE,114,1.1,0.0,90,0.01,,,0.20,WeatherDisplay:10.37,2013-12-22 10:20:00,
2013-12-22 05:25:00,32.5,29.9,29.67,WSW,249,0.0,0.0,90,0.01,,,0.20,WeatherDisplay:10.37,2013-12-22 10:25:00,
2013-12-22 05:30:00,32.5,29.9,29.67,SW,226,1.1,1.1,90,0.01,,,0.20,WeatherDisplay:10.37,2013-12-22 10:30:00,
2013-12-22 05:35:00,32.5,29.9,29.66,East,98,0.0,0.0,90,0.01,,,0.20,WeatherDisplay:10.37,2013-12-22 10:35:00,
2013-12-22 05:40:00,32.5,29.9,29.66,SE,141,1.1,1.1,90,0.01,,,0.20,WeatherDisplay:10.37,2013-12-22 10:40:00,
2013-12-22 05:45:00,32.6,30.0,29.67,WNW,287,0.0,0.1,90,0.01,,,0.20,WeatherDisplay:10.37,2013-12-22 10:45:00,
2013-12-22 05:50:00,32.6,30.0,29.69,WSW,249,0.0,0.0,90,0.01,,,0.20,WeatherDisplay:10.37,2013-12-22 10:50:00,
2013-12-22 05:55:00,32.5,29.9,29.69,WSW,249,0.0,0.1,90,0.01,,,0.20,WeatherDisplay:10.37,2013-12-22 10:55:00,
2013-12-22 06:00:00,32.6,30.0,29.69,WSW,255,0.0,0.0,90,0.01,,,0.20,WeatherDisplay:10.37,2013-12-22 11:00:00,
2013-12-22 06:05:00,32.6,30.0,29.70,WSW,248,0.0,0.0,90,0.00,,,0.20,WeatherDisplay:10.37,2013-12-22 11:05:00,
2013-12-22 06:10:00,32.6,30.0,29.70,WSW,256,1.1,0.0,90,0.00,,,0.20,WeatherDisplay:10.37,2013-12-22 11:10:00,
2013-12-22 06:15:00,32.6,30.0,29.71,WSW,242,0.0,0.0,90,0.00,,,0.20,WeatherDisplay:10.37,2013-12-22 11:15:00,
2013-12-22 06:20:00,32.6,30.0,29.71,West,280,0.0,0.0,90,0.00,,,0.20,WeatherDisplay:10.37,2013-12-22 11:20:00,
2013-12-22 06:25:00,32.7,30.1,29.70,West,273,0.0,0.0,90,0.00,,,0.20,WeatherDisplay:10.37,2013-12-22 11:25:00,
2013-12-22 06:30:00,32.7,30.1,29.70,West,271,0.0,0.0,90,0.00,,,0.20,WeatherDisplay:10.37,2013-12-22 11:30:00,
2013-12-22 06:35:00,32.6,30.0,29.71,WNW,283,0.0,0.0,90,0.00,,,0.20,WeatherDisplay:10.37,2013-12-22 11:35:00,
2013-12-22 06:40:00,32.6,30.0,29.71,WSW,257,0.0,0.0,90,0.00,,,0.20,WeatherDisplay:10.37,2013-12-22 11:40:00,
2013-12-22 06:45:00,32.6,30.0,29.71,West,264,0.0,0.0,90,0.00,,,0.20,WeatherDisplay:10.37,2013-12-22 11:45:00,
2013-12-22 06:50:00,32.7,30.1,29.72,West,280,0.0,0.0,90,0.00,,,0.20,WeatherDisplay:10.37,2013-12-22 11:50:00,
2013-12-22 06:55:00,32.6,30.0,29.70,West,280,0.0,0.0,90,0.00,,,0.20,WeatherDisplay:10.37,2013-12-22 11:55:00,
2013-12-22 07:00:00,32.6,30.0,29.73,WNW,293,0.0,0.0,90,0.00,,,0.20,WeatherDisplay:10.37,2013-12-22 12:00:00,
2013-12-22 07:05:00,32.6,30.0,29.72,NW,326,0.0,0.0,90,0.00,,,0.20,WeatherDisplay:10.37,2013-12-22 12:05:00,
2013-12-22 07:10:00,32.6,30.0,29.72,WNW,301,0.0,0.0,90,0.00,,,0.20,WeatherDisplay:10.37,2013-12-22 12:10:00,
2013-12-22 07:15:00,32.6,30.0,29.72,West,281,0.0,0.0,90,0.00,,,0.20,WeatherDisplay:10.37,2013-12-22 12:15:00,
2013-12-22 07:20:00,32.6,30.0,29.71,WNW,289,0.0,0.0,90,0.00,,,0.20,WeatherDisplay:10.37,2013-12-22 12:20:00,
2013-12-22 07:25:00,32.6,30.0,29.71,WNW,285,1.1,0.0,90,0.00,,,0.20,WeatherDisplay:10.37,2013-12-22 12:25:00,
2013-12-22 07:30:00,32.6,30.0,29.71,WNW,285,0.0,0.0,90,0.00,,,0.20,WeatherDisplay:10.37,2013-12-22 12:30:00,
2013-12-22 07:35:00,32.6,30.3,29.72,West,280,0.0,0.0,91,0.00,,,0.20,WeatherDisplay:10.37,2013-12-22 12:35:00,
2013-12-22 07:40:00,32.7,30.4,29.72,West,260,0.0,0.0,91,0.00,,,0.20,WeatherDisplay:10.37,2013-12-22 12:40:00,
2013-12-22 07:45:00,32.7,30.4,29.72,West,260,0.0,0.0,91,0.00,,,0.20,WeatherDisplay:10.37,2013-12-22 12:45:00,
2013-12-22 07:50:00,32.6,30.3,29.71,West,259,0.0,0.0,91,0.00,,,0.20,WeatherDisplay:10.37,2013-12-22 12:50:00,
2013-12-22 07:55:00,32.5,30.2,29.71,West,260,0.0,0.0,91,0.00,,,0.20,WeatherDisplay:10.37,2013-12-22 12:55:00,
2013-12-22 08:00:00,32.5,30.2,29.70,West,260,0.0,0.0,91,0.00,,,0.20,WeatherDisplay:10.37,2013-12-22 13:00:00,
2013-12-22 08:05:00,32.5,29.9,29.71,West,259,0.0,0.0,90,0.00,,,0.20,WeatherDisplay:10.37,2013-12-22 13:05:00,
2013-12-22 08:10:00,32.5,29.9,29.70,West,259,0.0,0.0,90,0.00,,,0.20,WeatherDisplay:10.37,2013-12-22 13:10:00,
2013-12-22 08:15:00,32.5,29.9,29.71,West,260,0.0,0.0,90,0.00,,,0.20,WeatherDisplay:10.37,2013-12-22 13:15:00,
2013-12-22 08:20:00,32.6,30.0,29.72,West,259,0.0,0.0,90,0.00,,,0.20,WeatherDisplay:10.37,2013-12-22 13:20:00,
2013-12-22 08:25:00,32.5,29.9,29.73,West,264,0.0,0.0,90,0.00,,,0.20,WeatherDisplay:10.37,2013-12-22 13:25:00,
2013-12-22 08:30:00,32.6,30.3,29.74,WNW,283,0.0,0.0,91,0.00,,,0.20,WeatherDisplay:10.37,2013-12-22 13:30:00,
2013-12-22 08:35:00,32.6,30.3,29.74,WNW,282,0.0,0.0,91,0.00,,,0.20,WeatherDisplay:10.37,2013-12-22 13:35:00,
2013-12-22 08:40:00,32.6,30.3,29.74,NNE,12,0.0,0.0,91,0.00,,,0.20,WeatherDisplay:10.37,2013-12-22 13:40:00,
2013-12-22 08:45:00,32.6,30.3,29.73,NNE,12,0.0,0.0,91,0.00,,,0.20,WeatherDisplay:10.37,2013-12-22 13:45:00,
2013-12-22 08:50:00,32.6,30.3,29.75,NW,314,0.0,0.0,91,0.00,,,0.20,WeatherDisplay:10.37,2013-12-22 13:50:00,
2013-12-22 08:55:00,32.6,30.3,29.74,SSE,161,0.0,0.0,91,0.00,,,0.20,WeatherDisplay:10.37,2013-12-22 13:55:00,
2013-12-22 09:01:00,32.6,30.3,29.73,SE,136,0.0,0.0,91,0.00,,,0.20,WeatherDisplay:10.37,2013-12-22 14:01:00,
2013-12-22 09:06:00,32.6,30.3,29.73,NE,35,1.0,1.0,91,0.00,,,0.20,WeatherDisplay:10.37,2013-12-22 14:06:00,
2013-12-22 09:11:00,32.6,30.3,29.73,East,89,1.1,1.1,91,0.00,,,0.20,WeatherDisplay:10.37,2013-12-22 14:11:00,
2013-12-22 09:16:00,32.8,30.5,29.70,NE,56,2.3,2.3,91,0.00,,,0.20,WeatherDisplay:10.37,2013-12-22 14:16:00,
2013-12-22 09:21:00,32.8,30.5,29.70,WNW,295,2.3,2.3,91,0.00,,,0.20,WeatherDisplay:10.37,2013-12-22 14:21:00,
2013-12-22 09:26:00,32.8,30.5,29.69,ESE,110,3.5,3.5,91,0.00,,,0.20,WeatherDisplay:10.37,2013-12-22 14:26:00,
2013-12-22 09:31:00,32.7,30.4,29.70,ESE,104,1.1,1.1,91,0.00,,,0.20,WeatherDisplay:10.37,2013-12-22 14:31:00,
2013-12-22 09:36:00,32.7,30.4,29.67,East,100,3.5,3.5,91,0.00,,,0.20,WeatherDisplay:10.37,2013-12-22 14:36:00,
2013-12-22 09:41:00,32.7,30.4,29.66,ESE,118,2.3,2.3,91,0.00,,,0.20,WeatherDisplay:10.37,2013-12-22 14:41:00,
2013-12-22 09:46:00,32.6,30.3,29.65,ESE,105,2.3,2.3,91,0.00,,,0.20,WeatherDisplay:10.37,2013-12-22 14:46:00,
2013-12-22 09:51:00,32.6,30.3,29.69,NW,325,1.1,1.1,91,0.00,,,0.20,WeatherDisplay:10.37,2013-12-22 14:51:00,
2013-12-22 09:56:00,32.6,30.3,29.71,NE,49,1.1,0.0,91,0.00,,,0.20,WeatherDisplay:10.37,2013-12-22 14:56:00,
2013-12-22 10:01:00,32.6,30.3,29.71,NNW,335,0.0,0.0,91,0.00,,,0.20,WeatherDisplay:10.37,2013-12-22 15:01:00,
2013-12-22 10:06:00,32.5,30.2,29.74,West,277,3.5,3.5,91,0.00,,,0.20,WeatherDisplay:10.37,2013-12-22 15:06:00,
2013-12-22 10:11:00,32.5,30.2,29.73,ENE,71,2.0,2.0,91,0.00,,,0.20,WeatherDisplay:10.37,2013-12-22 15:11:00,
2013-12-22 10:16:00,32.5,30.2,29.69,NE,49,6.0,6.0,91,0.00,,,0.20,WeatherDisplay:10.37,2013-12-22 15:16:00,
2013-12-22 10:21:00,32.4,30.1,29.71,ENE,68,2.3,2.3,91,0.00,,,0.20,WeatherDisplay:10.37,2013-12-22 15:21:00,
2013-12-22 10:26:00,32.4,30.1,29.72,East,91,1.1,1.1,91,0.00,,,0.20,WeatherDisplay:10.37,2013-12-22 15:26:00,
2013-12-22 10:31:00,32.4,30.1,29.73,ENE,71,3.5,3.5,91,0.00,,,0.20,WeatherDisplay:10.37,2013-12-22 15:31:00,
2013-12-22 10:36:00,32.4,30.1,29.70,ESE,113,1.1,1.1,91,0.00,,,0.20,WeatherDisplay:10.37,2013-12-22 15:36:00,
2013-12-22 10:41:00,32.5,30.2,29.69,ENE,71,0.0,0.0,91,0.00,,,0.20,WeatherDisplay:10.37,2013-12-22 15:41:00,
2013-12-22 10:46:00,32.4,30.1,29.69,ENE,77,3.5,3.5,91,0.00,,,0.20,WeatherDisplay:10.37,2013-12-22 15:46:00,
2013-12-22 10:51:00,32.4,29.8,29.70,SW,229,3.5,3.5,90,0.00,,,0.20,WeatherDisplay:10.37,2013-12-22 15:51:00,
2013-12-22 10:56:00,32.4,30.1,29.69,SSE,168,1.1,1.1,91,0.00,,,0.20,WeatherDisplay:10.37,2013-12-22 15:56:00,
2013-12-22 11:01:00,32.5,29.9,29.68,ENE,73,1.1,1.1,90,0.00,,,0.20,WeatherDisplay:10.37,2013-12-22 16:01:00,
2013-12-22 11:06:00,32.5,29.9,29.69,ENE,75,1.0,1.0,90,0.00,,,0.20,WeatherDisplay:10.37,2013-12-22 16:06:00,
2013-12-22 11:11:00,32.6,30.3,29.68,SSE,156,0.0,0.0,91,0.00,,,0.20,WeatherDisplay:10.37,2013-12-22 16:11:00,
2013-12-22 11:16:00,32.6,30.3,29.68,NNE,15,0.0,0.0,91,0.00,,,0.20,WeatherDisplay:10.37,2013-12-22 16:16:00,
2013-12-22 11:21:00,32.7,30.4,29.68,NNW,347,0.0,0.0,91,0.00,,,0.20,WeatherDisplay:10.37,2013-12-22 16:21:00,
2013-12-22 11:26:00,32.7,30.4,29.68,NNW,347,0.0,0.0,91,0.00,,,0.20,WeatherDisplay:10.37,2013-12-22 16:26:00,
2013-12-22 11:31:00,32.7,30.4,29.68,SE,142,0.0,0.0,91,0.00,,,0.20,WeatherDisplay:10.37,2013-12-22 16:31:00,
2013-12-22 11:36:00,32.8,30.5,29.68,SE,143,0.0,0.0,91,0.00,,,0.20,WeatherDisplay:10.37,2013-12-22 16:36:00,
2013-12-22 11:41:00,32.8,30.5,29.68,ENE,77,2.3,0.0,91,0.00,,,0.20,WeatherDisplay:10.37,2013-12-22 16:41:00,
2013-12-22 11:46:00,32.9,30.6,29.68,ENE,78,0.0,0.0,91,0.00,,,0.20,WeatherDisplay:10.37,2013-12-22 16:46:00,
2013-12-22 11:52:00,33.0,30.7,29.67,SE,141,0.0,0.0,91,0.00,,,0.20,WeatherDisplay:10.37,2013-12-22 16:52:00,
2013-12-22 11:57:00,33.0,30.7,29.67,SE,141,0.0,0.0,91,0.00,,,0.20,WeatherDisplay:10.37,2013-12-22 16:57:00,
2013-12-22 12:02:00,33.2,30.9,29.67,SE,141,0.0,0.0,91,0.00,,,0.20,WeatherDisplay:10.37,2013-12-22 17:02:00,
2013-12-22 12:07:00,33.2,30.9,29.67,SE,141,0.0,0.0,91,0.00,,,0.20,WeatherDisplay:10.37,2013-12-22 17:07:00,
2013-12-22 12:12:00,33.2,30.9,29.67,SE,141,0.0,0.0,91,0.00,,,0.20,WeatherDisplay:10.37,2013-12-22 17:12:00,
2013-12-22 12:17:00,33.2,30.9,29.67,SE,141,0.0,0.0,91,0.00,,,0.20,WeatherDisplay:10.37,2013-12-22 17:17:00,
2013-12-22 12:22:00,33.2,30.9,29.67,SE,141,0.0,0.0,91,0.00,,,0.20,WeatherDisplay:10.37,2013-12-22 17:22:00,
2013-12-22 12:27:00,33.1,30.8,29.67,SE,141,0.0,0.0,91,0.00,,,0.20,WeatherDisplay:10.37,2013-12-22 17:27:00,
2013-12-22 12:32:00,33.1,30.8,29.67,SSW,194,0.0,0.0,91,0.01,RA,,0.21,WeatherDisplay:10.37,2013-12-22 17:32:00,
2013-12-22 12:37:00,33.2,30.9,29.67,SSW,194,0.0,0.0,91,0.01,RA,,0.21,WeatherDisplay:10.37,2013-12-22 17:37:00,
2013-12-22 12:42:00,33.1,30.8,29.67,SSW,193,0.0,0.0,91,0.01,,,0.21,WeatherDisplay:10.37,2013-12-22 17:42:00,
2013-12-22 12:47:00,33.1,30.8,29.67,SSW,194,0.0,0.0,91,0.01,,,0.21,WeatherDisplay:10.37,2013-12-22 17:47:00,
2013-12-22 12:52:00,33.1,30.8,29.67,SSW,194,0.0,0.0,91,0.01,,,0.21,WeatherDisplay:10.37,2013-12-22 17:52:00,
2013-12-22 12:57:00,33.1,30.8,29.66,SSW,194,0.0,0.0,91,0.01,,,0.21,WeatherDisplay:10.37,2013-12-22 17:57:00,
2013-12-22 13:02:00,33.3,31.0,29.66,SSW,194,0.0,0.0,91,0.01,,,0.21,WeatherDisplay:10.37,2013-12-22 18:02:00,
2013-12-22 13:07:00,33.3,31.0,29.66,SSW,194,0.0,0.0,91,0.01,,,0.21,WeatherDisplay:10.37,2013-12-22 18:07:00,
2013-12-22 13:12:00,33.2,30.9,29.66,SSW,194,0.0,0.0,91,0.01,,,0.21,WeatherDisplay:10.37,2013-12-22 18:12:00,
2013-12-22 13:17:00,33.2,30.9,29.66,SSW,194,0.0,0.0,91,0.01,,,0.21,WeatherDisplay:10.37,2013-12-22 18:17:00,
2013-12-22 13:22:00,33.3,31.0,29.65,SSW,194,0.0,0.0,91,0.01,,,0.21,WeatherDisplay:10.37,2013-12-22 18:22:00,
2013-12-22 13:27:00,33.5,31.2,29.67,WSW,245,0.0,0.0,91,0.01,,,0.21,WeatherDisplay:10.37,2013-12-22 18:27:00,
2013-12-22 13:32:00,33.4,31.1,29.66,North,3,0.0,0.0,91,0.00,,,0.21,WeatherDisplay:10.37,2013-12-22 18:32:00,
2013-12-22 13:37:00,33.4,31.1,29.67,NNW,343,1.1,1.1,91,0.00,,,0.21,WeatherDisplay:10.37,2013-12-22 18:37:00,
2013-12-22 13:42:00,33.4,31.1,29.70,WNW,289,5.0,5.0,91,0.00,,,0.21,WeatherDisplay:10.37,2013-12-22 18:42:00,
2013-12-22 13:47:00,33.5,31.2,29.71,West,262,5.0,5.0,91,0.00,,,0.21,WeatherDisplay:10.37,2013-12-22 18:47:00,
2013-12-22 13:52:00,33.4,31.1,29.69,SE,132,3.5,3.5,91,0.00,,,0.21,WeatherDisplay:10.37,2013-12-22 18:52:00,
2013-12-22 13:57:00,33.4,30.8,29.70,WNW,288,3.5,3.5,90,0.00,,,0.21,WeatherDisplay:10.37,2013-12-22 18:57:00,
2013-12-22 14:02:00,33.5,30.9,29.72,West,260,3.0,3.0,90,0.00,,,0.21,WeatherDisplay:10.37,2013-12-22 19:02:00,
2013-12-22 14:07:00,33.5,30.9,29.70,ESE,123,3.5,3.5,90,0.00,,,0.21,WeatherDisplay:10.37,2013-12-22 19:07:00,
2013-12-22 14:12:00,33.6,31.0,29.71,WSW,239,2.3,2.3,90,0.00,,,0.21,WeatherDisplay:10.37,2013-12-22 19:12:00,
2013-12-22 14:17:00,33.7,31.1,29.71,WSW,248,0.0,0.0,90,0.00,,,0.21,WeatherDisplay:10.37,2013-12-22 19:17:00,
2013-12-22 14:22:00,33.7,31.1,29.71,WSW,248,0.0,0.0,90,0.00,,,0.21,WeatherDisplay:10.37,2013-12-22 19:22:00,
2013-12-22 14:27:00,33.6,31.0,29.71,WSW,248,0.0,0.0,90,0.00,,,0.21,WeatherDisplay:10.37,2013-12-22 19:27:00,
2013-12-22 14:32:00,33.8,31.2,29.71,West,266,0.0,0.0,90,0.00,,,0.21,WeatherDisplay:10.37,2013-12-22 19:32:00,
2013-12-22 14:37:00,33.8,31.2,29.72,West,265,0.0,0.0,90,0.00,,,0.21,WeatherDisplay:10.37,2013-12-22 19:37:00,
2013-12-22 14:42:00,34.0,31.6,29.72,WSW,253,0.0,0.0,91,0.00,,,0.21,WeatherDisplay:10.37,2013-12-22 19:42:00,
2013-12-22 14:47:00,34.0,31.6,29.72,NNE,27,0.0,0.0,91,0.00,,,0.21,WeatherDisplay:10.37,2013-12-22 19:47:00,
2013-12-22 14:52:00,34.2,31.8,29.73,WNW,285,0.0,0.0,91,0.00,,,0.21,WeatherDisplay:10.37,2013-12-22 19:52:00,
2013-12-22 14:57:00,34.3,31.9,29.73,WNW,285,0.0,0.0,91,0.00,,,0.21,WeatherDisplay:10.37,2013-12-22 19:57:00,
2013-12-22 15:02:00,34.5,32.1,29.74,WNW,285,0.0,0.0,91,0.00,,,0.21,WeatherDisplay:10.37,2013-12-22 20:02:00,
2013-12-22 15:07:00,34.4,32.0,29.74,WNW,285,0.0,0.0,91,0.00,,,0.21,WeatherDisplay:10.37,2013-12-22 20:07:00,
2013-12-22 15:12:00,34.6,32.2,29.74,WNW,285,0.0,0.0,91,0.00,,,0.21,WeatherDisplay:10.37,2013-12-22 20:12:00,
2013-12-22 15:17:00,34.6,32.2,29.74,WNW,285,0.0,0.0,91,0.01,RA,,0.22,WeatherDisplay:10.37,2013-12-22 20:17:00,
2013-12-22 15:22:00,34.7,32.3,29.74,WNW,285,0.0,0.0,91,0.01,RA,,0.22,WeatherDisplay:10.37,2013-12-22 20:22:00,
2013-12-22 15:27:00,34.8,32.4,29.75,WNW,285,0.0,0.0,91,0.01,,,0.22,WeatherDisplay:10.37,2013-12-22 20:27:00,
2013-12-22 15:32:00,34.9,32.5,29.75,WNW,285,0.0,0.0,91,0.01,,,0.22,WeatherDisplay:10.37,2013-12-22 20:32:00,
2013-12-22 15:37:00,35.0,32.6,29.76,WNW,285,0.0,0.0,91,0.01,,,0.22,WeatherDisplay:10.37,2013-12-22 20:37:00,
2013-12-22 15:42:00,35.2,32.8,29.77,WNW,285,0.0,0.0,91,0.02,RA,,0.23,WeatherDisplay:10.37,2013-12-22 20:42:00,
2013-12-22 15:47:00,35.2,32.8,29.77,WSW,240,0.0,0.0,91,0.02,RA,,0.23,WeatherDisplay:10.37,2013-12-22 20:47:00,
2013-12-22 15:52:00,35.3,32.9,29.77,WSW,241,0.0,0.0,91,0.02,,,0.23,WeatherDisplay:10.37,2013-12-22 20:52:00,
2013-12-22 15:57:00,35.4,33.0,29.78,WSW,241,0.0,0.0,91,0.02,,,0.23,WeatherDisplay:10.37,2013-12-22 20:57:00,
2013-12-22 16:02:00,35.5,33.1,29.78,WSW,240,0.0,0.0,91,0.02,,,0.23,WeatherDisplay:10.37,2013-12-22 21:02:00,
2013-12-22 16:07:00,35.5,33.1,29.78,WSW,241,0.0,0.0,91,0.02,,,0.23,WeatherDisplay:10.37,2013-12-22 21:07:00,
2013-12-22 16:12:00,35.5,33.1,29.79,WSW,240,0.0,0.0,91,0.02,,,0.23,WeatherDisplay:10.37,2013-12-22 21:12:00,
2013-12-22 16:17:00,35.5,33.1,29.79,NNW,337,0.0,0.0,91,0.02,RA,,0.24,WeatherDisplay:10.37,2013-12-22 21:17:00,
2013-12-22 16:22:00,36.1,33.7,29.80,West,275,0.0,0.0,91,0.02,RA,,0.24,WeatherDisplay:10.37,2013-12-22 21:22:00,
2013-12-22 16:27:00,36.6,34.2,29.80,West,276,3.5,3.5,91,0.02,,,0.24,WeatherDisplay:10.37,2013-12-22 21:27:00,
2013-12-22 16:29:00,37.0,34.6,29.81,NNE,25,0.0,0.0,91,0.02,,,0.24,WeatherDisplay:10.37,2013-12-22 21:29:00,
2013-12-22 16:34:00,37.9,35.5,29.81,West,264,4.6,4.6,91,0.02,,,0.24,WeatherDisplay:10.37,2013-12-22 21:34:00,
2013-12-22 16:39:00,39.3,37.2,29.81,NNW,329,6.9,6.9,92,0.02,,,0.24,WeatherDisplay:10.37,2013-12-22 21:39:00,
2013-12-22 16:44:00,40.1,38.0,29.81,West,278,5.8,5.8,92,0.02,RA,,0.25,WeatherDisplay:10.37,2013-12-22 21:44:00,
2013-12-22 16:49:00,40.6,38.5,29.81,West,264,11.5,11.5,92,0.02,RA,,0.25,WeatherDisplay:10.37,2013-12-22 21:49:00,
2013-12-22 16:54:00,40.7,38.6,29.81,NNW,348,4.0,4.0,92,0.02,,,0.25,WeatherDisplay:10.37,2013-12-22 21:54:00,
2013-12-22 16:59:00,40.6,38.5,29.82,North,9,3.5,3.5,92,0.02,,,0.25,WeatherDisplay:10.37,2013-12-22 21:59:00,
2013-12-22 17:04:00,40.8,38.7,29.82,NNW,338,1.1,1.1,92,0.02,,,0.25,WeatherDisplay:10.37,2013-12-22 22:04:00,
2013-12-22 17:09:00,41.1,39.0,29.81,NW,319,1.1,1.2,92,0.02,,,0.25,WeatherDisplay:10.37,2013-12-22 22:09:00,
2013-12-22 17:14:00,41.3,39.2,29.82,NE,53,3.5,3.5,92,0.01,,,0.25,WeatherDisplay:10.37,2013-12-22 22:14:00,
2013-12-22 17:19:00,41.9,39.7,29.82,West,266,7.0,7.0,92,0.01,,,0.25,WeatherDisplay:10.37,2013-12-22 22:19:00,
2013-12-22 17:24:00,42.2,40.0,29.83,NNE,27,1.0,0.0,92,0.01,,,0.25,WeatherDisplay:10.37,2013-12-22 22:24:00,
2013-12-22 17:29:00,42.5,40.3,29.83,West,267,1.1,1.1,92,0.01,,,0.25,WeatherDisplay:10.37,2013-12-22 22:29:00,
2013-12-22 17:34:00,42.6,40.4,29.84,NNW,343,3.5,3.5,92,0.01,,,0.25,WeatherDisplay:10.37,2013-12-22 22:34:00,
2013-12-22 17:39:00,43.0,41.1,29.84,WNW,302,3.5,3.5,93,0.01,,,0.25,WeatherDisplay:10.37,2013-12-22 22:39:00,
2013-12-22 17:44:00,43.0,40.8,29.84,WNW,290,2.3,2.3,92,0.00,,,0.25,WeatherDisplay:10.37,2013-12-22 22:44:00,
2013-12-22 17:49:00,42.8,40.6,29.83,WNW,282,3.5,3.5,92,0.00,,,0.25,WeatherDisplay:10.37,2013-12-22 22:49:00,
2013-12-22 17:54:00,42.9,41.0,29.84,WSW,242,2.3,2.3,93,0.00,,,0.25,WeatherDisplay:10.37,2013-12-22 22:54:00,
2013-12-22 17:59:00,43.0,40.8,29.84,North,354,2.3,2.3,92,0.00,,,0.25,WeatherDisplay:10.37,2013-12-22 22:59:00,
2013-12-22 18:04:00,42.7,40.5,29.85,North,351,0.0,0.0,92,0.00,,,0.25,WeatherDisplay:10.37,2013-12-22 23:04:00,
2013-12-22 18:09:00,42.7,40.5,29.85,WNW,293,3.5,3.5,92,0.00,,,0.25,WeatherDisplay:10.37,2013-12-22 23:09:00,
2013-12-22 18:14:00,42.7,40.8,29.86,North,356,2.3,2.3,93,0.00,,,0.25,WeatherDisplay:10.37,2013-12-22 23:14:00,
2013-12-22 18:20:00,43.1,40.9,29.87,East,83,3.5,3.5,92,0.00,,,0.25,WeatherDisplay:10.37,2013-12-22 23:20:00,
2013-12-22 18:25:00,43.3,41.4,29.86,SW,233,3.5,3.5,93,0.00,,,0.25,WeatherDisplay:10.37,2013-12-22 23:25:00,
2013-12-22 18:30:00,43.5,41.6,29.86,NNW,346,2.3,2.3,93,0.00,,,0.25,WeatherDisplay:10.37,2013-12-22 23:30:00,
2013-12-22 18:35:00,43.4,41.2,29.87,WNW,297,2.3,0.0,92,0.00,,,0.25,WeatherDisplay:10.37,2013-12-22 23:35:00,
2013-12-22 18:40:00,43.5,41.3,29.87,North,6,5.8,5.8,92,0.00,,,0.25,WeatherDisplay:10.37,2013-12-22 23:40:00,
2013-12-22 18:45:00,43.5,41.3,29.87,NNW,330,4.0,4.0,92,0.00,,,0.25,WeatherDisplay:10.37,2013-12-22 23:45:00,
2013-12-22 18:50:00,43.5,41.3,29.88,NW,312,3.5,0.0,92,0.00,,,0.25,WeatherDisplay:10.37,2013-12-22 23:50:00,
2013-12-22 18:55:00,43.5,41.3,29.88,West,262,0.0,0.0,92,0.00,,,0.25,WeatherDisplay:10.37,2013-12-22 23:55:00,
2013-12-22 19:00:00,43.7,41.5,29.88,WNW,297,3.5,3.5,92,0.00,,,0.25,WeatherDisplay:10.37,2013-12-23 00:00:00,
2013-12-22 19:05:00,43.6,41.1,29.89,NW,312,3.5,3.5,91,0.00,,,0.25,WeatherDisplay:10.37,2013-12-23 00:05:00,
2013-12-22 19:10:00,43.6,41.1,29.89,NNE,25,3.5,3.5,91,0.00,,,0.25,WeatherDisplay:10.37,2013-12-23 00:10:00,
2013-12-22 19:15:00,43.5,41.0,29.89,SW,215,1.1,0.0,91,0.00,,,0.25,WeatherDisplay:10.37,2013-12-23 00:15:00,
2013-12-22 19:20:00,43.5,40.8,29.90,NE,37,1.1,0.0,90,0.00,,,0.25,WeatherDisplay:10.37,2013-12-23 00:20:00,
2013-12-22 19:25:00,43.5,40.8,29.90,South,170,4.6,4.6,90,0.00,,,0.25,WeatherDisplay:10.37,2013-12-23 00:25:00,
2013-12-22 19:30:00,43.4,40.7,29.91,SW,234,2.0,2.0,90,0.00,,,0.25,WeatherDisplay:10.37,2013-12-23 00:30:00,
2013-12-22 19:35:00,43.5,40.8,29.91,West,277,3.0,3.0,90,0.00,,,0.25,WeatherDisplay:10.37,2013-12-23 00:35:00,
2013-12-22 19:40:00,43.5,40.8,29.91,WSW,249,4.6,4.6,90,0.00,,,0.25,WeatherDisplay:10.37,2013-12-23 00:40:00,
2013-12-22 19:45:00,43.4,40.4,29.91,NE,37,3.5,3.5,89,0.00,,,0.25,WeatherDisplay:10.37,2013-12-23 00:45:00,
2013-12-22 19:50:00,43.3,40.3,29.91,WNW,295,2.3,2.3,89,0.00,,,0.25,WeatherDisplay:10.37,2013-12-23 00:50:00,
2013-12-22 19:55:00,43.4,40.4,29.91,SSW,212,3.5,3.5,89,0.00,,,0.25,WeatherDisplay:10.37,2013-12-23 00:55:00,
2013-12-22 20:00:00,43.1,40.4,29.91,NW,321,3.5,3.5,90,0.00,,,0.25,WeatherDisplay:10.37,2013-12-23 01:00:00,
2013-12-22 20:05:00,43.2,40.2,29.91,NNW,342,6.9,6.9,89,0.00,,,0.25,WeatherDisplay:10.37,2013-12-23 01:05:00,
2013-12-22 20:10:00,43.2,40.5,29.92,NW,306,3.0,3.1,90,0.00,,,0.25,WeatherDisplay:10.37,2013-12-23 01:10:00,
2013-12-22 20:15:00,43.2,40.5,29.92,WSW,255,3.5,3.5,90,0.00,,,0.25,WeatherDisplay:10.37,2013-12-23 01:15:00,
2013-12-22 20:20:00,43.0,40.3,29.92,WSW,242,3.5,3.5,90,0.00,,,0.25,WeatherDisplay:10.37,2013-12-23 01:20:00,
2013-12-22 20:25:00,42.9,40.2,29.92,WSW,255,3.5,3.5,90,0.00,,,0.25,WeatherDisplay:10.37,2013-12-23 01:25:00,
2013-12-22 20:30:00,42.7,40.0,29.92,WNW,297,3.0,3.0,90,0.00,,,0.25,WeatherDisplay:10.37,2013-12-23 01:30:00,
2013-12-22 20:35:00,42.7,40.0,29.93,SW,236,1.1,1.1,90,0.00,,,0.25,WeatherDisplay:10.37,2013-12-23 01:35:00,
2013-12-22 20:40:00,42.6,39.9,29.94,WNW,293,2.3,2.3,90,0.00,,,0.25,WeatherDisplay:10.37,2013-12-23 01:40:00,
2013-12-22 20:45:00,42.3,39.6,29.94,NW,308,1.1,0.0,90,0.00,,,0.25,WeatherDisplay:10.37,2013-12-23 01:45:00,
2013-12-22 20:50:00,41.7,39.3,29.94,West,277,1.1,1.1,91,0.00,,,0.25,WeatherDisplay:10.37,2013-12-23 01:50:00,
2013-12-22 20:55:00,41.3,38.6,29.94,NW,316,1.1,0.0,90,0.00,,,0.25,WeatherDisplay:10.37,2013-12-23 01:55:00,
2013-12-22 21:00:00,40.8,38.1,29.94,NNW,336,1.1,0.0,90,0.00,,,0.25,WeatherDisplay:10.37,2013-12-23 02:00:00,
2013-12-22 21:05:00,40.6,37.9,29.94,NW,309,3.5,3.5,90,0.00,,,0.25,WeatherDisplay:10.37,2013-12-23 02:05:00,
2013-12-22 21:10:00,40.3,37.6,29.94,WNW,287,1.1,1.1,90,0.00,,,0.25,WeatherDisplay:10.37,2013-12-23 02:10:00,
2013-12-22 21:15:00,40.1,37.4,29.94,WNW,294,1.1,1.1,90,0.00,,,0.25,WeatherDisplay:10.37,2013-12-23 02:15:00,
2013-12-22 21:20:00,39.8,37.1,29.94,NNW,348,0.0,0.0,90,0.00,,,0.25,WeatherDisplay:10.37,2013-12-23 02:20:00,
2013-12-22 21:25:00,39.6,36.6,29.95,NNW,332,1.1,1.1,89,0.00,,,0.25,WeatherDisplay:10.37,2013-12-23 02:25:00,
2013-12-22 21:30:00,39.5,36.5,29.96,NNW,343,1.1,1.1,89,0.00,,,0.25,WeatherDisplay:10.37,2013-12-23 02:30:00,
2013-12-22 21:35:00,39.3,36.3,29.96,West,266,1.1,1.1,89,0.00,,,0.25,WeatherDisplay:10.37,2013-12-23 02:35:00,
2013-12-22 21:40:00,39.3,36.3,29.96,NE,35,0.0,0.0,89,0.00,,,0.25,WeatherDisplay:10.37,2013-12-23 02:40:00,
2013-12-22 21:45:00,39.1,36.1,29.96,East,89,1.1,1.1,89,0.00,,,0.25,WeatherDisplay:10.37,2013-12-23 02:45:00,
2013-12-22 21:50:00,39.0,36.0,29.95,NNE,23,0.0,0.0,89,0.00,,,0.25,WeatherDisplay:10.37,2013-12-23 02:50:00,
2013-12-22 21:55:00,38.8,35.8,29.96,East,100,0.0,0.0,89,0.00,,,0.25,WeatherDisplay:10.37,2013-12-23 02:55:00,
2013-12-22 22:00:00,38.7,35.7,29.96,East,98,0.0,0.0,89,0.00,,,0.25,WeatherDisplay:10.37,2013-12-23 03:00:00,
2013-12-22 22:05:00,38.7,35.7,29.95,ENE,77,0.0,0.0,89,0.00,,,0.25,WeatherDisplay:10.37,2013-12-23 03:05:00,
2013-12-22 22:10:00,38.6,35.6,29.95,ENE,76,0.0,0.0,89,0.00,,,0.25,WeatherDisplay:10.37,2013-12-23 03:10:00,
2013-12-22 22:15:00,38.6,35.6,29.96,ENE,77,0.0,0.0,89,0.00,,,0.25,WeatherDisplay:10.37,2013-12-23 03:15:00,
2013-12-22 22:20:00,38.5,35.5,29.95,ENE,76,0.0,0.0,89,0.00,,,0.25,WeatherDisplay:10.37,2013-12-23 03:20:00,
2013-12-22 22:25:00,38.5,35.5,29.95,ENE,77,0.0,0.0,89,0.00,,,0.25,WeatherDisplay:10.37,2013-12-23 03:25:00,
2013-12-22 22:30:00,38.5,35.5,29.95,ENE,77,0.0,0.0,89,0.00,,,0.25,WeatherDisplay:10.37,2013-12-23 03:30:00,
2013-12-22 22:35:00,38.4,35.4,29.97,ENE,77,0.0,0.0,89,0.00,,,0.25,WeatherDisplay:10.37,2013-12-23 03:35:00,
2013-12-22 22:40:00,38.3,35.3,29.97,ENE,77,0.0,0.0,89,0.00,,,0.25,WeatherDisplay:10.37,2013-12-23 03:40:00,
2013-12-22 22:45:00,38.3,35.3,29.97,ESE,112,0.0,0.0,89,0.00,,,0.25,WeatherDisplay:10.37,2013-12-23 03:45:00,
2013-12-22 22:50:00,38.2,35.2,29.98,ESE,112,0.0,0.0,89,0.00,,,0.25,WeatherDisplay:10.37,2013-12-23 03:50:00,
2013-12-22 22:55:00,38.2,35.2,29.98,ESE,112,0.0,0.0,89,0.00,,,0.25,WeatherDisplay:10.37,2013-12-23 03:55:00,
2013-12-22 23:00:00,38.3,35.3,29.98,ESE,112,0.0,0.0,89,0.00,,,0.25,WeatherDisplay:10.37,2013-12-23 04:00:00,
2013-12-22 23:05:00,38.2,35.2,29.97,ESE,111,0.0,0.0,89,0.00,,,0.25,WeatherDisplay:10.37,2013-12-23 04:05:00,
2013-12-22 23:10:00,38.3,35.3,29.97,SSE,160,0.0,0.0,89,0.00,,,0.25,WeatherDisplay:10.37,2013-12-23 04:10:00,
2013-12-22 23:15:00,38.2,35.2,29.98,SSE,160,0.0,0.0,89,0.00,,,0.25,WeatherDisplay:10.37,2013-12-23 04:15:00,
2013-12-22 23:21:00,38.1,35.1,29.98,SSE,160,0.0,0.0,89,0.00,,,0.25,WeatherDisplay:10.37,2013-12-23 04:21:00,
2013-12-22 23:26:00,38.2,35.2,29.98,SSE,160,0.0,0.0,89,0.00,,,0.25,WeatherDisplay:10.37,2013-12-23 04:26:00,
2013-12-22 23:31:00,38.2,35.2,29.98,SSE,159,0.0,0.0,89,0.00,,,0.25,WeatherDisplay:10.37,2013-12-23 04:31:00,
2013-12-22 23:36:00,38.2,35.5,29.98,SSE,160,0.0,0.0,90,0.00,,,0.25,WeatherDisplay:10.37,2013-12-23 04:36:00,
2013-12-22 23:41:00,38.3,35.6,29.97,SSE,159,0.0,0.0,90,0.00,,,0.25,WeatherDisplay:10.37,2013-12-23 04:41:00,
2013-12-22 23:46:00,38.2,35.5,29.98,SSE,159,0.0,0.0,90,0.00,,,0.25,WeatherDisplay:10.37,2013-12-23 04:46:00,
2013-12-22 23:51:00,38.1,35.4,29.98,SSE,160,0.0,0.0,90,0.00,,,0.25,WeatherDisplay:10.37,2013-12-23 04:51:00,
2013-12-22 23:56:00,38.2,35.5,29.99,SSE,159,0.0,0.0,90,0.00,,,0.25,WeatherDisplay:10.37,2013-12-23 04:56:00,